Location: Clayton (historical)
(34.0300°N, 118.0259°W)
Time: 23:16:34
(UTC+00:00)

Cosmos 2278 - Pass Details

Date: 29 October 2020
Orbit: 841 x 851 km, 71.1° (Epoch: 29 November)

Event Time Altitude Azimuth Distance (km) Brightness Sun altitude
Rises 13:24:52 0° 330° (NNW) 3,401 6.5 -9.9°
Reaches altitude 10° 13:27:26 10° 323° (NW) 2,462 5.7 -9.3°
Maximum altitude 13:32:39 40° 256° (WSW) 1,217 4.1 -8.3°
Drops below altitude 10° 13:37:52 10° 187° (S) 2,449 6.2 -7.2°
Sets 13:40:26 0° 180° (S) 3,381 7.0 -6.7°
